Vorticity
11 14 7 4 4 -1 -2 11 9 7 7 9 9 10 11 12 11 6 5 6 8 7 7 7 6 6 5
-6 33 -9 1 3 -4 8 10 8 10 9 10 12 11 9 6 5 5 6 7 6 5 6 7 7 10 14
-1 8 12 5 -4 10 10 12 10 9 9 9 8 6 4 5 4 7 8 6 6 11 8 14 25 32 35
9 17 -3 -4 10 10 12 9 10 9 6 5 6 6 6 7 9 9 11 12 12 21 36 32 16 6 11
6 -2 -8 2 10 9 7 4 6 5 4 7 5 7 6 9 12 14 16 28 35 27 9 11 45 45 34
-3 23 12 8 3 2 3 4 7 5 8 10 9 12 16 24 25 38 31 20 5 8 46 33 24 16 20
4 1 1 1 4 7 7 8 11 12 14 19 18 27 31 35 24 12 4 5 28 30 18 16 16 15 21
3 3 5 7 10 13 17 16 17 26 32 46 43 40 28 9 6 9 28 23 16 15 19 16 13 15 13
10 12 18 20 16 15 26 41 53 53 36 42 12 7 6 24 28 23 18 8 9 20 8 4 9 15 17
30 25 24 33 41 47 50 49 37 7 4 7 7 18 39 19 13 8 14 16 11 5 8 7 13 10 19
32 39 39 39 49 46 18 3 7 5 5 17 25 17 15 17 13 12 8 11 11 9 9 11 15 14 13
33 35 30 15 5 7 8 4 5 8 16 17 13 17 20 13 8 5 9 7 8 11 13 10 9 12 18
10 7 5 6 6 10 7 6 8 13 14 12 15 21 19 7 7 5 9 14 14 12 13 17 10 -2 -0
13 12 11 12 10 11 7 8 8 13 11 12 12 19 12 8 5 15 17 19 17 19 17 15 20 16 12
19 17 14 13 13 11 9 11 8 9 10 11 15 16 13 13 11 15 23 21 19 21 26 26 17 16 19
15 14 12 13 14 9 5 11 9 8 9 10 15 13 12 11 9 12 12 13 13 12 11 13 14 2 15
12 15 13 13 13 12 5 4 11 9 4 2 10 20 13 8 15 11 8 8 12 14 15 12 17 10 12
Height
5661 5656 5652 5648 5644 5640 5637 5632 5627 5621 5617 5612 5607 5602 5597 5592 5588 5585 5581 5577 5572 5567 5562 5558 5554 5549 5545
5646 5641 5637 5631 5627 5622 5617 5612 5607 5600 5593 5588 5582 5578 5573 5568 5564 5560 5556 5551 5546 5541 5534 5529 5523 5517 5512
5631 5625 5620 5613 5609 5603 5598 5591 5584 5576 5569 5564 5558 5552 5546 5542 5538 5533 5527 5522 5518 5511 5505 5498 5491 5484 5480
5614 5608 5602 5594 5589 5583 5579 5570 5563 5552 5545 5540 5533 5526 5519 5516 5511 5504 5499 5493 5487 5480 5474 5467 5463 5458 5453
5596 5590 5581 5574 5568 5562 5557 5550 5542 5530 5521 5514 5507 5499 5491 5488 5481 5475 5469 5464 5459 5454 5449 5444 5438 5431 5422
5577 5569 5562 5556 5548 5542 5534 5526 5521 5506 5497 5492 5479 5473 5467 5459 5451 5446 5442 5440 5436 5433 5427 5421 5415 5407 5398
5559 5550 5543 5534 5527 5518 5509 5501 5493 5480 5473 5474 5454 5452 5445 5437 5431 5428 5425 5421 5417 5414 5410 5404 5397 5390 5382
5537 5528 5519 5510 5500 5492 5482 5475 5465 5454 5443 5449 5436 5435 5432 5424 5416 5412 5407 5403 5401 5398 5394 5389 5382 5375 5367
5514 5504 5494 5483 5473 5466 5456 5449 5444 5434 5424 5430 5424 5425 5421 5410 5401 5398 5393 5390 5387 5383 5378 5373 5367 5360 5352
5489 5479 5470 5460 5451 5443 5437 5433 5429 5425 5421 5421 5416 5411 5410 5398 5393 5388 5383 5378 5375 5371 5366 5362 5357 5350 5342
5472 5459 5449 5442 5437 5433 5430 5426 5423 5418 5414 5410 5406 5401 5396 5392 5383 5379 5375 5370 5365 5359 5354 5349 5344 5339 5334
5459 5450 5442 5437 5432 5427 5423 5420 5415 5411 5404 5399 5395 5390 5385 5382 5379 5371 5366 5360 5356 5350 5344 5338 5332 5328 5324
5451 5444 5438 5432 5427 5422 5418 5413 5407 5400 5394 5389 5385 5381 5375 5372 5369 5363 5358 5350 5343 5339 5334 5328 5323 5318 5314
5444 5438 5432 5427 5422 5418 5412 5407 5401 5393 5384 5379 5375 5371 5366 5361 5357 5351 5346 5340 5332 5325 5323 5317 5312 5308 5304
5438 5431 5426 5420 5415 5411 5407 5401 5396 5391 5383 5374 5368 5363 5357 5351 5346 5341 5336 5328 5322 5317 5312 5308 5300 5297 5294
5431 5425 5419 5414 5409 5404 5400 5395 5390 5383 5376 5369 5363 5358 5352 5343 5328 5327 5324 5320 5315 5307 5303 5301 5295 5287 5287
5425 5419 5413 5407 5403 5398 5393 5388 5382 5376 5369 5361 5355 5350 5345 5342 5330 5315 5316 5311 5306 5300 5293 5288 5286 5281 5278